Terminal Aerodrome Forecast
Issued by NWS Bismarck, ND

Home | Current Version | Previous Version | Text Only | Print | Product List | Glossary Off
Versions: 1 2 3 4 5 6 7 8 9 10 11 12 13 14 15 16 17 18

000
FTUS43 KBIS 190300 AAA
TAFBIS
TAF AMD
KBIS 190312Z 1903/1924 17006KT P6SM VCSH BKN120 OVC150
     FM191200 18007KT P6SM VCSH SCT080 BKN120
     FM191400 28009KT P6SM SCT150
     FM191800 29014G19KT P6SM FEW060 FEW110=

USA.gov is the U.S. government's official web portal to all federal, state and local government web resources and services.